QPF
0.00 0.00 0.01 0.01 0.01 0.01 0.01 0.01 0.01 0.01 0.00 0.01 0.02 0.01 0.00 0.00 0.00 0.00 0.00 0.00 0.00 0.00 0.00 0.00 0.00 0.01 0.01 0.01 0.02 0.02 0.01 0.02 0.02 0.01 0.01 0.02 0.02 0.02 0.02 0.02 0.02 0.01 0.01 0.01
0.00 0.00 0.00 0.00 0.00 0.00 0.01 0.02 0.03 0.02 0.01 0.01 0.01 0.01 0.00 0.00 0.00 0.00 0.01 0.01 0.01 0.00 0.01 0.00 0.00 0.00 0.00 0.01 0.02 0.02 0.02 0.02 0.03 0.03 0.03 0.02 0.02 0.02 0.02 0.03 0.02 0.02 0.01 0.01
0.01 0.01 0.00 0.00 0.00 0.00 0.01 0.03 0.03 0.03 0.01 0.00 0.00 0.01 0.01 0.01 0.00 0.00 0.00 0.01 0.01 0.01 0.01 0.01 0.00 0.00 0.01 0.02 0.03 0.03 0.03 0.03 0.03 0.04 0.04 0.03 0.02 0.03 0.03 0.03 0.03 0.03 0.02 0.02
0.01 0.00 0.00 0.00 0.00 0.00 0.01 0.02 0.04 0.04 0.03 0.02 0.01 0.02 0.01 0.01 0.01 0.01 0.00 0.00 0.01 0.00 0.00 0.00 0.00 0.00 0.00 0.01 0.02 0.03 0.04 0.04 0.04 0.05 0.05 0.05 0.04 0.03 0.03 0.04 0.03 0.03 0.03 0.04
0.01 0.00 0.00 0.01 0.00 0.00 0.00 0.01 0.02 0.04 0.05 0.05 0.03 0.02 0.02 0.01 0.01 0.00 0.00 0.00 0.01 0.01 0.00 0.00 0.00 0.01 0.01 0.01 0.01 0.03 0.04 0.03 0.05 0.07 0.05 0.05 0.06 0.04 0.03 0.02 0.03 0.04 0.04 0.04
0.00 0.00 0.00 0.00 0.00 0.00 0.00 0.01 0.01 0.03 0.05 0.06 0.06 0.05 0.03 0.01 0.02 0.01 0.00 0.00 0.01 0.01 0.00 0.00 0.01 0.01 0.01 0.01 0.01 0.03 0.04 0.04 0.04 0.07 0.07 0.05 0.06 0.05 0.04 0.03 0.02 0.02 0.03 0.04
0.01 0.00 0.00 0.00 0.00 0.00 0.01 0.03 0.04 0.05 0.05 0.03 0.02 0.03 0.03 0.02 0.01 0.01 0.01 0.01 0.00 0.01 0.01 0.01 0.01 0.01 0.01 0.01 0.01 0.02 0.02 0.02 0.03 0.05 0.08 0.07 0.07 0.06 0.05 0.03 0.03 0.02 0.02 0.04
0.01 0.01 0.00 0.00 0.00 0.01 0.01 0.02 0.04 0.06 0.06 0.03 0.01 0.01 0.02 0.02 0.02 0.01 0.01 0.01 0.00 0.00 0.00 0.01 0.01 0.01 0.02 0.01 0.01 0.02 0.01 0.01 0.01 0.03 0.06 0.09 0.09 0.07 0.06 0.03 0.03 0.03 0.03 0.03
0.01 0.01 0.00 0.00 0.00 0.00 0.01 0.01 0.01 0.03 0.02 0.01 0.01 0.00 0.00 0.01 0.01 0.01 0.01 0.01 0.01 0.01 0.00 0.01 0.01 0.02 0.04 0.03 0.02 0.02 0.01 0.01 0.01 0.02 0.03 0.06 0.09 0.09 0.06 0.04 0.03 0.02 0.02 0.02
0.01 0.01 0.01 0.00 0.00 0.00 0.01 0.01 0.02 0.02 0.02 0.02 0.01 0.01 0.01 0.01 0.01 0.01 0.01 0.01 0.01 0.01 0.01 0.01 0.01 0.03 0.03 0.03 0.02 0.02 0.01 0.01 0.01 0.01 0.01 0.03 0.06 0.08 0.08 0.06 0.05 0.04 0.02 0.02
0.01 0.01 0.01 0.00 0.00 0.00 0.01 0.01 0.02 0.02 0.01 0.02 0.02 0.02 0.01 0.01 0.01 0.01 0.01 0.01 0.01 0.01 0.01 0.01 0.02 0.02 0.01 0.01 0.01 0.03 0.02 0.01 0.01 0.01 0.01 0.01 0.03 0.04 0.06 0.06 0.06 0.04 0.03 0.02
0.01 0.01 0.01 0.00 0.00 0.00 0.00 0.00 0.01 0.03 0.02 0.01 0.02 0.02 0.01 0.01 0.01 0.01 0.01 0.01 0.01 0.01 0.01 0.01 0.01 0.01 0.01 0.01 0.01 0.02 0.02 0.01 0.01 0.01 0.01 0.01 0.02 0.02 0.03 0.05 0.06 0.05 0.04 0.03
0.01 0.00 0.01 0.01 0.00 0.00 0.00 0.00 0.01 0.02 0.02 0.02 0.03 0.02 0.01 0.00 0.01 0.01 0.01 0.01 0.01 0.02 0.02 0.02 0.01 0.01 0.01 0.01 0.01 0.01 0.01 0.01 0.01 0.01 0.01 0.01 0.02 0.01 0.01 0.03 0.05 0.06 0.06 0.04
0.01 0.00 0.01 0.01 0.01 0.00 0.00 0.00 0.00 0.02 0.03 0.03 0.02 0.02 0.01 0.01 0.01 0.01 0.01 0.01 0.01 0.01 0.02 0.02 0.01 0.01 0.02 0.01 0.01 0.01 0.01 0.01 0.01 0.01 0.01 0.01 0.02 0.01 0.01 0.02 0.03 0.05 0.05 0.05
0.01 0.01 0.00 0.00 0.00 0.00 0.00 0.00 0.01 0.01 0.02 0.03 0.02 0.03 0.02 0.01 0.01 0.01 0.01 0.01 0.01 0.01 0.01 0.01 0.01 0.01 0.01 0.01 0.01 0.00 0.00 0.00 0.01 0.01 0.01 0.02 0.03 0.03 0.02 0.02 0.02 0.03 0.04 0.04
0.01 0.01 0.01 0.00 0.00 0.00 0.00 0.00 0.01 0.01 0.02 0.02 0.04 0.05 0.03 0.02 0.01 0.01 0.01 0.01 0.01 0.01 0.01 0.01 0.01 0.01 0.01 0.01 0.01 0.01 0.00 0.00 0.00 0.01 0.01 0.02 0.02 0.03 0.03 0.03 0.03 0.03 0.03 0.03
0.01 0.01 0.02 0.01 0.01 0.01 0.02 0.01 0.01 0.01 0.02 0.03 0.06 0.06 0.04 0.02 0.01 0.01 0.01 0.01 0.01 0.01 0.01 0.01 0.01 0.01 0.01 0.01 0.01 0.01 0.01 0.01 0.01 0.01 0.01 0.01 0.01 0.02 0.02 0.02 0.02 0.03 0.04 0.04
0.01 0.02 0.02 0.02 0.02 0.03 0.02 0.01 0.00 0.01 0.02 0.03 0.04 0.05 0.04 0.04 0.03 0.01 0.01 0.01 0.01 0.01 0.01 0.01 0.01 0.01 0.01 0.01 0.01 0.01 0.01 0.02 0.02 0.02 0.01 0.01 0.01 0.01 0.02 0.02 0.02 0.02 0.02 0.03
0.01 0.02 0.03 0.03 0.04 0.03 0.01 0.00 0.00 0.00 0.01 0.02 0.02 0.03 0.04 0.03 0.05 0.04 0.01 0.01 0.00 0.00 0.01 0.01 0.01 0.01 0.01 0.01 0.01 0.01 0.01 0.01 0.02 0.03 0.03 0.02 0.02 0.01 0.01 0.02 0.02 0.02 0.02 0.02
0.00 0.01 0.02 0.03 0.05 0.04 0.03 0.01 0.00 0.00 0.01 0.01 0.02 0.02 0.02 0.02 0.03 0.04 0.02 0.01 0.01 0.00 0.00 0.01 0.00 0.00 0.01 0.01 0.01 0.01 0.00 0.01 0.01 0.02 0.02 0.03 0.03 0.03 0.02 0.02 0.02 0.03 0.03 0.03
0.01 0.01 0.02 0.02 0.04 0.03 0.02 0.01 0.01 0.01 0.02 0.01 0.01 0.01 0.01 0.01 0.02 0.02 0.02 0.01 0.01 0.01 0.01 0.01 0.01 0.01 0.01 0.01 0.01 0.01 0.00 0.00 0.00 0.01 0.01 0.02 0.02 0.02 0.02 0.02 0.01 0.02 0.03 0.04
0.01 0.02 0.02 0.02 0.03 0.03 0.01 0.01 0.02 0.02 0.01 0.00 0.01 0.01 0.01 0.01 0.01 0.00 0.01 0.01 0.01 0.00 0.00 0.00 0.01 0.01 0.01 0.01 0.01 0.01 0.01 0.01 0.01 0.01 0.02 0.02 0.02 0.02 0.02 0.02 0.01 0.02 0.02 0.03
0.01 0.01 0.01 0.02 0.02 0.02 0.02 0.02 0.02 0.01 0.01 0.01 0.01 0.01 0.01 0.01 0.01 0.00 0.00 0.00 0.00 0.00 0.00 0.00 0.01 0.01 0.02 0.02 0.03 0.02 0.02 0.02 0.02 0.02 0.03 0.03 0.03 0.02 0.02 0.02 0.02 0.02 0.02 0.02
0.01 0.01 0.01 0.01 0.01 0.01 0.01 0.02 0.02 0.01 0.01 0.01 0.01 0.01 0.01 0.01 0.01 0.01 0.00 0.00 0.00 0.00 0.00 0.01 0.01 0.01 0.02 0.02 0.03 0.03 0.03 0.02 0.03 0.03 0.04 0.05 0.04 0.03 0.03 0.02 0.02 0.02 0.02 0.02
0.01 0.01 0.01 0.01 0.01 0.01 0.01 0.01 0.01 0.01 0.00 0.00 0.01 0.01 0.01 0.01 0.01 0.01 0.00 0.00 0.00 0.00 0.01 0.01 0.01 0.02 0.03 0.03 0.03 0.04 0.04 0.04 0.04 0.04 0.04 0.04 0.04 0.03 0.02 0.02 0.03 0.02 0.02 0.01
0.01 0.02 0.02 0.02 0.01 0.01 0.01 0.01 0.00 0.01 0.00 0.00 0.00 0.00 0.01 0.01 0.01 0.01 0.01 0.01 0.01 0.01 0.01 0.01 0.02 0.03 0.03 0.03 0.04 0.04 0.04 0.04 0.04 0.04 0.04 0.04 0.04 0.03 0.03 0.03 0.03 0.03 0.03 0.03
MSLP
1012.42 1013.05 1013.62 1014.12 1014.60 1015.08 1015.59 1016.15 1016.78 1017.43 1018.09 1018.71 1019.26 1019.70 1020.05 1020.29 1020.45 1020.56 1020.64 1020.70 1020.74 1020.74 1020.67 1020.51 1020.23 1019.84 1019.34 1018.76 1018.14 1017.54 1016.99 1016.55 1016.23 1016.03 1015.94 1015.92 1015.94 1015.97 1015.96 1015.92 1015.83 1015.70 1015.55 1015.41
1012.98 1013.48 1013.91 1014.30 1014.68 1015.09 1015.58 1016.15 1016.81 1017.52 1018.24 1018.92 1019.51 1019.99 1020.35 1020.60 1020.78 1020.91 1021.03 1021.15 1021.27 1021.38 1021.42 1021.38 1021.22 1020.92 1020.50 1019.98 1019.42 1018.86 1018.35 1017.94 1017.65 1017.47 1017.38 1017.35 1017.33 1017.29 1017.19 1017.02 1016.79 1016.52 1016.23 1015.95
1013.38 1013.74 1014.04 1014.31 1014.61 1014.97 1015.43 1016.02 1016.71 1017.46 1018.23 1018.94 1019.56 1020.05 1020.42 1020.67 1020.86 1021.02 1021.20 1021.39 1021.62 1021.83 1022.01 1022.10 1022.06 1021.88 1021.56 1021.14 1020.65 1020.15 1019.71 1019.36 1019.12 1018.98 1018.91 1018.88 1018.83 1018.73 1018.55 1018.27 1017.92 1017.52 1017.10 1016.69
1013.64 1013.88 1014.06 1014.24 1014.47 1014.79 1015.25 1015.84 1016.55 1017.33 1018.11 1018.83 1019.45 1019.94 1020.30 1020.56 1020.76 1020.95 1021.18 1021.45 1021.77 1022.11 1022.41 1022.63 1022.72 1022.66 1022.45 1022.13 1021.73 1021.33 1020.96 1020.68 1020.50 1020.40 1020.37 1020.34 1020.29 1020.15 1019.90 1019.55 1019.11 1018.61 1018.09 1017.59
1013.81 1013.95 1014.05 1014.16 1014.35 1014.65 1015.10 1015.70 1016.41 1017.19 1017.97 1018.68 1019.28 1019.74 1020.08 1020.33 1020.54 1020.76 1021.03 1021.38 1021.80 1022.24 1022.66 1022.99 1023.20 1023.25 1023.15 1022.92 1022.62 1022.30 1022.01 1021.80 1021.67 1021.62 1021.62 1021.61 1021.55 1021.40 1021.12 1020.73 1020.24 1019.69 1019.11 1018.55
1013.90 1013.99 1014.05 1014.14 1014.30 1014.60 1015.05 1015.64 1016.35 1017.11 1017.86 1018.53 1019.09 1019.52 1019.83 1020.07 1020.29 1020.53 1020.85 1021.26 1021.75 1022.28 1022.79 1023.22 1023.52 1023.67 1023.66 1023.52 1023.30 1023.05 1022.83 1022.67 1022.59 1022.58 1022.60 1022.61 1022.55 1022.40 1022.12 1021.72 1021.22 1020.66 1020.07 1019.50
1013.92 1014.00 1014.07 1014.17 1014.35 1014.66 1015.11 1015.69 1016.38 1017.10 1017.80 1018.43 1018.94 1019.34 1019.62 1019.85 1020.08 1020.35 1020.71 1021.17 1021.71 1022.30 1022.87 1023.37 1023.74 1023.96 1024.02 1023.95 1023.79 1023.60 1023.43 1023.31 1023.27 1023.27 1023.31 1023.32 1023.27 1023.12 1022.86 1022.47 1022.00 1021.46 1020.90 1020.35
1013.86 1013.98 1014.08 1014.22 1014.44 1014.77 1015.22 1015.79 1016.45 1017.12 1017.78 1018.35 1018.83 1019.19 1019.47 1019.70 1019.95 1020.25 1020.64 1021.14 1021.72 1022.34 1022.95 1023.49 1023.90 1024.16 1024.27 1024.26 1024.15 1024.00 1023.87 1023.78 1023.75 1023.76 1023.79 1023.80 1023.75 1023.61 1023.36 1023.00 1022.57 1022.08 1021.56 1021.05
1013.69 1013.87 1014.05 1014.25 1014.51 1014.87 1015.33 1015.88 1016.49 1017.12 1017.72 1018.25 1018.70 1019.06 1019.34 1019.61 1019.89 1020.23 1020.66 1021.19 1021.79 1022.43 1023.06 1023.61 1024.04 1024.33 1024.47 1024.49 1024.43 1024.32 1024.22 1024.15 1024.12 1024.13 1024.14 1024.14 1024.07 1023.93 1023.68 1023.35 1022.95 1022.51 1022.05 1021.60
1013.41 1013.66 1013.91 1014.18 1014.50 1014.87 1015.33 1015.85 1016.41 1016.99 1017.55 1018.05 1018.49 1018.86 1019.19 1019.51 1019.85 1020.25 1020.73 1021.29 1021.91 1022.55 1023.17 1023.72 1024.15 1024.46 1024.63 1024.69 1024.66 1024.60 1024.52 1024.47 1024.45 1024.44 1024.43 1024.40 1024.31 1024.15 1023.91 1023.59 1023.22 1022.82 1022.41 1022.00
1013.02 1013.35 1013.67 1014.00 1014.35 1014.74 1015.17 1015.65 1016.16 1016.69 1017.20 1017.69 1018.13 1018.55 1018.94 1019.34 1019.76 1020.24 1020.78 1021.38 1022.02 1022.66 1023.27 1023.81 1024.24 1024.55 1024.74 1024.84 1024.86 1024.84 1024.81 1024.78 1024.76 1024.75 1024.73 1024.66 1024.55 1024.36 1024.10 1023.79 1023.43 1023.05 1022.68 1022.31
1012.60 1012.98 1013.36 1013.72 1014.09 1014.46 1014.86 1015.28 1015.72 1016.18 1016.66 1017.13 1017.60 1018.07 1018.54 1019.04 1019.57 1020.14 1020.75 1021.40 1022.06 1022.70 1023.30 1023.82 1024.25 1024.57 1024.79 1024.93 1025.01 1025.04 1025.06 1025.07 1025.08 1025.07 1025.04 1024.95 1024.81 1024.60 1024.32 1023.99 1023.64 1023.27 1022.92 1022.58
1012.20 1012.63 1013.03 1013.41 1013.77 1014.11 1014.44 1014.78 1015.14 1015.53 1015.95 1016.40 1016.89 1017.42 1017.98 1018.58 1019.23 1019.90 1020.60 1021.30 1021.99 1022.64 1023.23 1023.74 1024.17 1024.50 1024.75 1024.94 1025.08 1025.18 1025.26 1025.33 1025.37 1025.38 1025.35 1025.26 1025.10 1024.86 1024.57 1024.23 1023.87 1023.51 1023.17 1022.86
1011.92 1012.36 1012.78 1013.15 1013.48 1013.75 1014.00 1014.24 1014.50 1014.79 1015.14 1015.56 1016.06 1016.63 1017.27 1017.98 1018.73 1019.51 1020.29 1021.06 1021.78 1022.45 1023.04 1023.55 1023.98 1024.33 1024.61 1024.85 1025.05 1025.23 1025.38 1025.51 1025.60 1025.65 1025.63 1025.55 1025.38 1025.14 1024.84 1024.50 1024.15 1023.80 1023.47 1023.18
1011.80 1012.25 1012.66 1013.01 1013.28 1013.48 1013.62 1013.74 1013.88 1014.06 1014.33 1014.69 1015.18 1015.78 1016.48 1017.27 1018.12 1018.99 1019.86 1020.69 1021.45 1022.14 1022.74 1023.25 1023.69 1024.06 1024.39 1024.68 1024.94 1025.19 1025.42 1025.61 1025.76 1025.85 1025.86 1025.79 1025.64 1025.41 1025.12 1024.79 1024.45 1024.12 1023.82 1023.55
1011.84 1012.29 1012.69 1012.99 1013.20 1013.31 1013.34 1013.34 1013.34 1013.40 1013.57 1013.87 1014.32 1014.92 1015.67 1016.53 1017.45 1018.40 1019.34 1020.23 1021.04 1021.75 1022.37 1022.90 1023.36 1023.76 1024.12 1024.46 1024.78 1025.09 1025.38 1025.64 1025.84 1025.97 1026.02 1025.98 1025.86 1025.65 1025.38 1025.08 1024.77 1024.47 1024.21 1023.98
1012.01 1012.45 1012.81 1013.07 1013.21 1013.22 1013.15 1013.02 1012.90 1012.84 1012.90 1013.13 1013.54 1014.13 1014.90 1015.79 1016.78 1017.79 1018.79 1019.74 1020.59 1021.34 1021.99 1022.54 1023.02 1023.45 1023.85 1024.24 1024.61 1024.98 1025.32 1025.63 1025.87 1026.05 1026.13 1026.12 1026.03 1025.86 1025.63 1025.37 1025.11 1024.86 1024.64 1024.46
1012.20 1012.61 1012.94 1013.14 1013.21 1013.14 1012.97 1012.74 1012.51 1012.36 1012.33 1012.49 1012.86 1013.44 1014.21 1015.13 1016.16 1017.22 1018.28 1019.27 1020.16 1020.96 1021.64 1022.23 1022.74 1023.21 1023.65 1024.08 1024.50 1024.91 1025.29 1025.63 1025.91 1026.11 1026.22 1026.24 1026.18 1026.04 1025.86 1025.66 1025.45 1025.26 1025.10 1024.97
1012.29 1012.66 1012.94 1013.09 1013.09 1012.96 1012.71 1012.41 1012.11 1011.89 1011.82 1011.93 1012.27 1012.84 1013.62 1014.57 1015.62 1016.72 1017.82 1018.85 1019.80 1020.63 1021.36 1021.99 1022.55 1023.06 1023.54 1024.02 1024.48 1024.92 1025.33 1025.70 1025.99 1026.20 1026.33 1026.37 1026.33 1026.23 1026.09 1025.94 1025.80 1025.67 1025.58 1025.51
1012.19 1012.50 1012.71 1012.80 1012.75 1012.57 1012.28 1011.94 1011.62 1011.39 1011.30 1011.42 1011.76 1012.34 1013.13 1014.10 1015.18 1016.31 1017.44 1018.51 1019.49 1020.37 1021.14 1021.82 1022.44 1023.00 1023.54 1024.06 1024.56 1025.03 1025.46 1025.84 1026.14 1026.35 1026.48 1026.53 1026.50 1026.43 1026.34 1026.24 1026.15 1026.09 1026.06 1026.05
1011.86 1012.07 1012.21 1012.23 1012.14 1011.93 1011.64 1011.31 1011.02 1010.81 1010.77 1010.92 1011.30 1011.91 1012.73 1013.73 1014.83 1015.99 1017.14 1018.24 1019.25 1020.17 1020.99 1021.72 1022.39 1023.01 1023.60 1024.17 1024.71 1025.22 1025.67 1026.05 1026.35 1026.56 1026.69 1026.73 1026.71 1026.66 1026.59 1026.53 1026.50 1026.50 1026.52 1026.57
1011.30 1011.41 1011.45 1011.41 1011.28 1011.06 1010.80 1010.53 1010.30 1010.18 1010.21 1010.44 1010.89 1011.56 1012.43 1013.45 1014.57 1015.74 1016.91 1018.02 1019.06 1020.00 1020.86 1021.64 1022.36 1023.04 1023.69 1024.31 1024.90 1025.44 1025.91 1026.30 1026.61 1026.81 1026.92 1026.95 1026.94 1026.89 1026.84 1026.81 1026.82 1026.86 1026.94 1027.02
1010.59 1010.57 1010.52 1010.41 1010.26 1010.07 1009.86 1009.66 1009.54 1009.53 1009.68 1010.02 1010.56 1011.30 1012.21 1013.26 1014.40 1015.57 1016.73 1017.85 1018.89 1019.85 1020.74 1021.55 1022.32 1023.06 1023.76 1024.43 1025.06 1025.64 1026.14 1026.54 1026.84 1027.04 1027.15 1027.17 1027.15 1027.10 1027.06 1027.06 1027.09 1027.17 1027.27 1027.40
1009.81 1009.67 1009.53 1009.38 1009.22 1009.06 1008.92 1008.83 1008.83 1008.96 1009.24 1009.69 1010.33 1011.14 1012.10 1013.17 1014.31 1015.47 1016.61 1017.71 1018.74 1019.70 1020.60 1021.44 1022.24 1023.01 1023.76 1024.48 1025.15 1025.76 1026.29 1026.71 1027.02 1027.23 1027.33 1027.35 1027.32 1027.28 1027.24 1027.24 1027.29 1027.38 1027.51 1027.65
1009.05 1008.82 1008.61 1008.43 1008.28 1008.17 1008.12 1008.14 1008.27 1008.53 1008.94 1009.50 1010.22 1011.10 1012.09 1013.17 1014.30 1015.43 1016.54 1017.61 1018.61 1019.55 1020.44 1021.29 1022.10 1022.90 1023.68 1024.43 1025.14 1025.78 1026.33 1026.78 1027.11 1027.33 1027.44 1027.46 1027.44 1027.39 1027.35 1027.35 1027.40 1027.50 1027.63 1027.78
1008.37 1008.07 1007.82 1007.64 1007.52 1007.48 1007.52 1007.66 1007.91 1008.29 1008.81 1009.46 1010.25 1011.16 1012.17 1013.24 1014.34 1015.44 1016.51 1017.53 1018.50 1019.41 1020.27 1021.11 1021.93 1022.73 1023.52 1024.29 1025.02 1025.69 1026.26 1026.74 1027.10 1027.33 1027.46 1027.50 1027.49 1027.44 1027.41 1027.40 1027.44 1027.53 1027.65 1027.79
Thickness
5751 5738 5729 5736 5742 5740 5739 5735 5732 5739 5751 5743 5735 5735 5741 5746 5746 5744 5744 5743 5743 5743 5746 5748 5746 5745 5743 5742 5741 5740 5737 5737 5735 5732 5729 5727 5725 5725 5724 5724 5724 5723 5723 5722
5736 5728 5740 5748 5747 5742 5736 5729 5728 5736 5746 5740 5732 5732 5740 5743 5742 5742 5741 5739 5739 5739 5739 5740 5740 5738 5737 5735 5735 5735 5734 5732 5731 5729 5727 5725 5723 5721 5720 5719 5719 5719 5718 5718
5725 5733 5746 5742 5737 5731 5730 5725 5724 5725 5734 5738 5729 5721 5729 5737 5741 5741 5741 5740 5739 5737 5734 5733 5733 5732 5730 5729 5730 5730 5729 5727 5726 5725 5723 5721 5718 5715 5713 5712 5712 5713 5714 5713
5728 5737 5738 5733 5729 5728 5721 5733 5730 5725 5717 5714 5723 5701 5719 5729 5729 5732 5733 5734 5733 5733 5732 5730 5728 5726 5725 5724 5725 5725 5724 5722 5721 5719 5716 5713 5710 5707 5707 5707 5707 5708 5708 5708
5721 5728 5726 5722 5726 5729 5725 5734 5729 5724 5716 5709 5718 5707 5710 5726 5719 5724 5729 5730 5729 5729 5728 5725 5724 5723 5722 5721 5720 5719 5718 5716 5715 5714 5711 5709 5706 5705 5705 5704 5703 5703 5703 5703
5722 5731 5729 5725 5730 5733 5732 5727 5726 5723 5712 5694 5711 5706 5699 5714 5716 5721 5725 5726 5726 5725 5724 5721 5721 5719 5716 5715 5714 5713 5711 5709 5709 5708 5707 5704 5701 5701 5699 5698 5697 5697 5697 5697
5708 5717 5726 5727 5717 5722 5721 5706 5691 5689 5685 5693 5718 5707 5700 5717 5724 5721 5719 5720 5722 5721 5718 5716 5713 5710 5708 5707 5705 5705 5704 5702 5702 5701 5700 5699 5697 5697 5695 5694 5692 5691 5691 5690
5694 5696 5713 5718 5712 5708 5712 5706 5683 5674 5680 5694 5711 5700 5703 5719 5723 5722 5719 5717 5716 5713 5712 5709 5707 5704 5701 5700 5698 5697 5696 5695 5695 5694 5693 5693 5691 5690 5689 5689 5689 5687 5686 5686
5692 5692 5712 5717 5718 5712 5703 5703 5707 5692 5690 5687 5699 5703 5707 5715 5712 5712 5711 5709 5707 5706 5705 5702 5700 5698 5694 5692 5691 5691 5690 5689 5688 5687 5687 5686 5685 5684 5683 5684 5684 5683 5682 5682
5695 5685 5699 5708 5710 5709 5706 5703 5695 5684 5673 5671 5684 5691 5688 5694 5697 5700 5700 5699 5698 5698 5697 5695 5692 5690 5687 5685 5684 5685 5684 5682 5681 5681 5680 5679 5678 5678 5677 5677 5676 5676 5677 5677
5696 5683 5687 5694 5690 5691 5692 5690 5689 5685 5686 5671 5665 5675 5698 5696 5696 5694 5693 5692 5691 5689 5687 5687 5685 5683 5681 5679 5677 5676 5676 5675 5673 5673 5672 5671 5671 5671 5670 5669 5669 5669 5670 5670
5691 5682 5677 5688 5702 5703 5696 5692 5687 5670 5673 5679 5670 5667 5698 5695 5694 5691 5687 5685 5684 5682 5680 5678 5677 5675 5673 5670 5669 5668 5667 5666 5666 5665 5665 5664 5663 5663 5663 5662 5663 5663 5663 5663
5680 5674 5666 5669 5679 5688 5686 5688 5688 5683 5675 5669 5661 5662 5689 5688 5685 5683 5680 5677 5675 5673 5671 5669 5666 5665 5664 5662 5660 5660 5659 5658 5658 5658 5657 5656 5655 5655 5655 5655 5655 5655 5655 5655
5675 5669 5664 5656 5665 5677 5674 5677 5681 5675 5661 5660 5663 5662 5670 5673 5673 5672 5671 5669 5666 5664 5661 5658 5656 5655 5655 5654 5653 5651 5650 5650 5650 5649 5648 5647 5647 5647 5647 5647 5648 5647 5646 5646
5669 5661 5667 5670 5676 5675 5672 5671 5671 5667 5665 5657 5660 5660 5662 5664 5664 5664 5663 5661 5658 5654 5652 5649 5646 5646 5646 5645 5645 5643 5642 5642 5642 5641 5639 5638 5639 5639 5638 5639 5639 5638 5638 5638
5662 5656 5659 5660 5669 5667 5662 5666 5667 5663 5663 5659 5657 5652 5660 5661 5659 5655 5652 5649 5646 5644 5642 5640 5639 5637 5636 5636 5636 5634 5633 5633 5633 5632 5631 5630 5630 5629 5629 5629 5629 5628 5628 5628
5653 5650 5646 5646 5659 5655 5646 5657 5660 5658 5657 5653 5645 5645 5651 5648 5645 5642 5640 5638 5635 5633 5632 5630 5629 5628 5627 5627 5627 5625 5625 5624 5623 5622 5622 5621 5620 5619 5619 5618 5618 5617 5617 5617
5647 5643 5639 5639 5641 5628 5646 5662 5659 5652 5649 5650 5647 5644 5641 5639 5636 5635 5633 5628 5625 5623 5621 5619 5619 5619 5619 5619 5619 5618 5616 5615 5613 5612 5611 5610 5610 5608 5608 5608 5607 5607 5607 5607
5648 5638 5630 5631 5628 5632 5642 5649 5648 5640 5636 5643 5639 5637 5635 5633 5628 5622 5623 5620 5616 5614 5611 5610 5609 5609 5609 5609 5609 5607 5606 5604 5602 5601 5600 5599 5598 5597 5597 5597 5597 5597 5597 5597
5641 5636 5625 5623 5617 5617 5629 5640 5644 5636 5623 5634 5634 5629 5626 5622 5610 5608 5613 5611 5608 5605 5603 5601 5600 5599 5598 5598 5598 5596 5594 5592 5591 5590 5589 5588 5588 5587 5586 5586 5586 5587 5587 5587
5622 5620 5615 5613 5612 5614 5626 5632 5633 5614 5613 5625 5625 5622 5618 5612 5606 5606 5606 5602 5598 5596 5594 5592 5590 5588 5587 5587 5587 5585 5583 5581 5581 5580 5579 5578 5577 5577 5576 5576 5576 5576 5576 5576
5614 5610 5609 5608 5603 5602 5620 5621 5614 5612 5619 5619 5616 5613 5609 5605 5603 5600 5596 5592 5589 5586 5584 5582 5579 5577 5576 5575 5574 5573 5571 5571 5571 5569 5568 5567 5566 5566 5566 5565 5565 5565 5565 5564
5612 5609 5606 5605 5603 5611 5615 5613 5614 5614 5610 5609 5606 5604 5601 5596 5592 5590 5586 5582 5579 5577 5574 5572 5569 5566 5565 5564 5562 5560 5559 5560 5559 5558 5556 5556 5556 5555 5554 5554 5554 5554 5553 5553
5608 5611 5604 5601 5605 5606 5608 5608 5607 5606 5602 5601 5598 5595 5592 5587 5583 5580 5576 5573 5570 5567 5564 5562 5559 5556 5554 5553 5551 5550 5549 5549 5548 5546 5545 5544 5544 5543 5543 5542 5543 5542 5541 5541
5597 5598 5595 5593 5596 5597 5596 5597 5596 5596 5596 5593 5590 5587 5583 5579 5575 5570 5566 5563 5560 5558 5555 5552 5549 5546 5545 5544 5542 5540 5539 5538 5536 5535 5534 5533 5532 5532 5531 5530 5530 5530 5530 5529
5592 5588 5584 5584 5588 5585 5585 5588 5588 5586 5584 5583 5580 5577 5575 5570 5565 5561 5557 5554 5551 5548 5546 5542 5540 5537 5536 5533 5531 5529 5528 5526 5525 5524 5523 5521 5520 5519 5519 5518 5518 5518 5519 5519